This is the latest recevied weather packets stored in our database for station/object VK5FR. If no packets are shown the sender has not sent any weather packets the latest 10 day(s).
| Time | Temp. | Humidity | Pressure | Rain* | Wind** | Luminosity | Snow |
|---|---|---|---|---|---|---|---|
| 1788153312 | 64° F | 64% | 768.3 mmHg | 0 in | - | - | - |
| 1788153007 | 64° F | 63% | 768.3 mmHg | 0 in | - | - | - |
| 1788152706 | 64° F | 63% | 768.3 mmHg | 0 in | - | - | - |
| 1788152405 | 64° F | 63% | 768.4 mmHg | 0 in | - | - | - |
| 1788152099 | 64° F | 62% | 768.4 mmHg | 0 in | - | - | - |
| 1788151794 | 64° F | 64% | 768.4 mmHg | 0 in | - | - | - |
| 1788151490 | 63° F | 64% | 768.4 mmHg | 0 in | - | - | - |
| 1788151185 | 63° F | 64% | 768.6 mmHg | 0 in | - | - | - |
| 1788150884 | 63° F | 63% | 768.8 mmHg | 0 in | - | - | - |
| 1788150580 | 63° F | 63% | 768.7 mmHg | 0 in | - | - | - |
| 1788150274 | 63° F | 64% | 768.7 mmHg | 0 in | - | - | - |
| 1788149974 | 62° F | 66% | 768.9 mmHg | 0 in | - | - | - |
| 1788149674 | 63° F | 66% | 769 mmHg | 0 in | - | - | - |
| 1788149369 | 62° F | 66% | 769 mmHg | 0 in | - | - | - |
| 1788149064 | 61° F | 67% | 769.1 mmHg | 0 in | - | - | - |
| 1788148761 | 62° F | 67% | 769.1 mmHg | 0 in | - | - | - |
| 1788148460 | 61° F | 70% | 769.3 mmHg | 0 in | - | - | - |
| 1788148155 | 60° F | 70% | 769.3 mmHg | 0 in | - | - | - |
| 1788147850 | 60° F | 71% | 769.4 mmHg | 0 in | - | - | - |
| 1788147546 | 59° F | 71% | 769.6 mmHg | 0 in | - | - | - |
| 1788147241 | 60° F | 69% | 769.7 mmHg | 0 in | - | - | - |
| 1788146936 | 59° F | 71% | 769.8 mmHg | 0 in | - | - | - |
| 1788146630 | 59° F | 74% | 769.8 mmHg | 0 in | - | - | - |
| 1788146326 | 59° F | 75% | 769.9 mmHg | 0 in | - | - | - |
| 1788146025 | 59° F | 75% | 769.9 mmHg | 0 in | - | - | - |
* Rain latest hour (hover to see other rain measurements)
** Current wind speed in m/s (hover to see current wind gust speed)